sat.trackr.live / text

‹ back to catalog

STARLINK-36349

NORAD 67964 · 2026-038D

PAYLOAD ACTIVE UNKNOWN

§ Identity

Operator
Country
US
Launch date
2026-02-25
Launch site
AFWTR
Launch vehicle
Mass (kg)
RCS (m²)

Purposes: comms

External: N2YO · Heavens-Above · Gunter

§ Orbital elements

Epoch: 2026-09-19T22:30:05.917536Z

Period
93.91 min
Inclination
97.2853°
Eccentricity
0.0001755
Mean motion
15.33461456 rev/d
Perigee alt
464.3 km
Apogee alt
466.7 km
Semi-major
6,843.6 km
B*
5.7716e-4
RAAN
271.2297°
Arg perigee
91.6745°
Mean anomaly
268.4699°
Rev number
3,300

§ Raw data

STARLINK-363491 67964U 26038D   26262.93756849  .00018614  00000+0  57716-3 0  99982 67964  97.2853 271.2297 0001755  91.6745 268.4699 15.33461456 33006

JSON: /api/v1/satellites/67964 · /tle

For live sub-satellite position, see the globe view (requires WebGL).

§ Visibility from observer

Set your observer location to see the next 7 days of passes ≥ 10°. The values pass through the URL so the page stays shareable.

No JS? Fill the form by hand. The geolocation button needs JavaScript.